User: anonymous   Login
Location: Newark
(25.4800°N, 85.7200°E)
Time: 08:50:10
(UTC+00:00)
Language:

Explorer 11/Cluster Stage 4 - Orbit

View from above orbital plane
View from above orbital plane
View from above satellite
View from above satellite

Ground track
Ground track

The orbit data is extracted from the following two-line orbital elements,

1   107U 61013A   19232.91224126 +.00000298 +00000-0 +17138-4 0  9996
2   107 028.7907 084.2747 0547272 220.9543 134.8663 14.08817942923668
Epoch (UTC): 20 August 2019 21:53:37
Eccentricity: 0.0547272
inclination: 28.7907°
perigee height: 467 km
apogee height: 1260 km
right ascension of ascending node: 84.2747°
argument of perigee: 220.9543°
revolutions per day: 14.08817942
mean anomaly at epoch: 134.8663°
orbit number at epoch: 92366

The dashed part of the orbit path shows where the satellite is in the earth's shadow,  

DLR